Location: Gagetown
(45.7834°N, 66.1486°W)
Time: 12:43:32
(UTC+00:00)

NANOSAT C BR1 - Visible Passes

Search period start: 20 September 2021 00:00
Search period end: 30 September 2021 00:00
Orbit: 588 x 604 km, 98.0° (Epoch: 19 September)

Date Brightness Start Highest point End Pass type
(mag) Time Alt. Az. Time Alt. Az. Time Alt. Az.
20 Sep ? 05:55:58 10° NNE 05:56:13 11° NNE 05:56:13 11° NNE visible
21 Sep ? 06:05:50 10° NNE 06:06:08 12° NNE 06:06:08 12° NNE visible
22 Sep ? 06:15:45 10° NNE 06:16:02 12° NNE 06:16:02 12° NNE visible
23 Sep ? 06:25:41 10° N 06:25:57 12° N 06:25:57 12° N visible
24 Sep ? 06:35:39 10° N 06:35:52 11° N 06:35:52 11° N visible
25 Sep ? 06:45:39 10° N 06:45:46 11° N 06:45:46 11° N visible
